Stations météo

réclame
Mon MeteoGroup
Nordkoster, Suède (2500): Température de l'air & dewpoint: 12.02.2019 01:00:00 - 18.02.2019 01:00:00 (CET)Nordkoster, Suède (2500): Vitesse du vent & gusts: 12.02.2019 01:00:00 - 18.02.2019 01:00:00 (CET)Nordkoster, Suède (2500): Direction du vent: 12.02.2019 01:00:00 - 18.02.2019 01:00:00 (CET)Nordkoster, Suède (2500): reduced air pressure: 12.02.2019 01:00:00 - 18.02.2019 01:00:00 (CET)Nordkoster, Suède (2500): visibility: 12.02.2019 01:00:00 - 18.02.2019 01:00:00 (CET)Nordkoster, Suède (2500): Quantités de précipitations: 12.02.2019 01:00:00 - 18.02.2019 01:00:00 (CET)
Date & Time tt [°C] td [°C] ff [km/h] ff [knt] fx [km/h] fx [knt] dd ppp [hPa] vv [km] rr [mm]
18.02.2019 01:00:00 4,4 4,2 27 14 40 22 S 1016,2 0,9 0,0
18.02.2019 00:00:00 4,5 4,4 31 17 41 22 S 1016,8 0,3 0,0
17.02.2019 23:00:00 4,7 4,7 26 14 39 21 SSE 1017,1 0,2 0,1
17.02.2019 22:00:00 4,6 4,6 27 14 35 19 SSE 1017,9 0,2 0,0
17.02.2019 21:00:00 4,4 4,4 23 12 31 17 SSE 1018,0 0,3 0,0
17.02.2019 20:00:00 4,1 4,0 21 11 32 18 SSE 1018,1 0,2 0,0
17.02.2019 19:00:00 3,8 3,8 22 12 32 17 SSE 1018,6 0,2 0,0
17.02.2019 18:00:00 4,0 4,0 18 10 24 13 SSE 1018,8 0,2 0,0
17.02.2019 17:00:00 3,1 3,1 9 5 13 7 SE 1018,8 1,5 0,0
17.02.2019 16:00:00 3,0 2,9 7 4 12 6 SE 1019,0 1,9 0,0
17.02.2019 15:00:00 3,0 2,9 6 3 9 5 S 1019,4 1,5 0,0
17.02.2019 14:00:00 - - - - 12 6 - - - -
17.02.2019 13:00:00 2,9 2,8 2 1 8 4 W 1019,4 0,4 0,0
17.02.2019 12:00:00 2,8 2,7 5 3 8 4 WSW 1019,1 0,3 0,0
17.02.2019 11:00:00 2,7 2,7 5 3 11 6 WNW 1018,9 0,2 0,0
17.02.2019 10:00:00 2,5 2,4 6 3 10 5 W 1018,4 0,2 0,0
17.02.2019 09:00:00 2,5 2,4 5 3 10 5 SW 1017,9 0,2 0,0
17.02.2019 08:00:00 2,0 1,9 5 3 7 4 SSW 1017,2 0,2 0,0
17.02.2019 07:00:00 1,9 1,8 5 3 10 6 NW 1016,7 0,3 0,0
17.02.2019 06:00:00 - - - - 10 5 - - - -
17.02.2019 05:00:00 1,2 1,1 4 2 6 4 S 1015,9 0,2 0,0
17.02.2019 04:00:00 0,8 0,7 0 0 11 6 N 1015,7 0,1 0,0
17.02.2019 03:00:00 0,9 0,9 10 6 17 9 WNW 1015,4 0,2 0,0
17.02.2019 02:00:00 1,5 1,4 12 7 14 8 WNW 1015,3 0,2 0,0
17.02.2019 01:00:00 3,4 3,0 9 5 14 8 WSW 1014,9 5 0,0
17.02.2019 00:00:00 3,8 3,4 9 5 14 8 WSW 1014,9 6 0,0
16.02.2019 23:00:00 4,1 3,7 2 1 15 8 SSW 1014,5 6 0,0
16.02.2019 22:00:00 4,5 3,6 8 4 26 14 WSW 1014,0 7 0,0
16.02.2019 21:00:00 4,9 3,9 17 9 30 16 W 1013,1 8 0,0
16.02.2019 20:00:00 5,1 3,9 21 11 39 21 WSW 1012,6 7 0,0
16.02.2019 19:00:00 5,3 4,6 27 14 41 22 WSW 1012,0 6 0,0
16.02.2019 18:00:00 5,1 4,5 24 13 40 22 WSW 1011,9 5 0,0
16.02.2019 17:00:00 5,1 4,4 26 14 46 25 SW 1011,3 4,5 0,0
16.02.2019 16:00:00 - - - - 45 24 - - - -
16.02.2019 15:00:00 5,5 4,5 30 16 49 26 SW 1011,1 5 0,0
16.02.2019 14:00:00 5,4 4,2 31 17 49 27 SW 1010,7 6 0,0
16.02.2019 13:00:00 5,3 4,4 31 17 43 23 SW 1010,6 5 0,0
16.02.2019 12:00:00 5,2 4,2 26 14 45 24 SW 1011,7 4,8 0,0
16.02.2019 11:00:00 5,0 4,1 25 14 38 20 SW 1012,0 4,0 0,0
16.02.2019 10:00:00 4,7 3,8 27 15 45 24 S 1011,7 4,3 0,0
16.02.2019 09:00:00 4,7 4,0 28 15 45 24 SW 1012,7 3,8 0,0
16.02.2019 08:00:00 4,5 3,8 29 16 42 23 SW 1013,1 3,6 0,0
16.02.2019 07:00:00 4,5 3,8 28 15 41 22 SW 1013,1 4,6 0,0
16.02.2019 06:00:00 4,4 3,5 24 13 34 18 SSW 1013,8 4,5 0,0
16.02.2019 05:00:00 4,5 3,6 20 11 32 17 S 1015,0 6 0,0
16.02.2019 04:00:00 4,2 3,3 21 12 30 16 S 1015,6 5 0,0
16.02.2019 03:00:00 4,2 3,3 25 13 34 19 SSW 1016,6 6 0,0
16.02.2019 02:00:00 4,3 3,4 26 14 35 19 SSW 1017,7 5 0,0
16.02.2019 01:00:00 4,1 3,2 26 14 34 18 SSW 1018,4 6 0,0
16.02.2019 00:00:00 4,2 2,5 28 15 37 20 SSW 1018,7 6 0,0
15.02.2019 23:00:00 4,5 2,5 27 15 35 19 SSW 1019,4 6 0,0
15.02.2019 22:00:00 4,2 2,9 23 13 37 20 S 1020,4 4,3 0,0
15.02.2019 21:00:00 4,4 3,2 28 15 39 21 S 1021,0 5 0,0
15.02.2019 20:00:00 4,5 3,2 33 18 42 23 SSW 1021,6 5 0,0
15.02.2019 19:00:00 4,5 3,5 33 18 47 25 S 1022,0 4,9 0,0
15.02.2019 18:00:00 - - - - 50 27 - - - -
15.02.2019 17:00:00 4,5 3,6 32 17 48 26 S 1022,5 6 0,0
15.02.2019 16:00:00 4,7 4,0 29 16 42 23 S 1023,1 6 0,0
15.02.2019 15:00:00 4,7 4,1 24 13 43 23 S 1023,9 5 0,0
15.02.2019 14:00:00 4,6 4,5 32 17 44 24 S 1024,6 4,6 0,0
15.02.2019 13:00:00 4,0 3,9 33 18 43 23 SSW 1025,0 1,9 0,0
15.02.2019 12:00:00 3,8 3,7 29 16 43 23 SSW 1025,6 2,9 0,0
15.02.2019 11:00:00 3,7 3,6 26 14 37 20 SSW 1026,0 3,1 0,0
15.02.2019 10:00:00 - - - - 38 20 - - - -
15.02.2019 09:00:00 3,6 2,3 27 14 37 20 SSW 1026,1 0,2 0,0
15.02.2019 08:00:00 3,9 3,9 21 11 31 17 SSW 1025,8 0,3 0,0
15.02.2019 07:00:00 4,1 4,0 21 12 39 21 SSW 1025,7 1,6 0,0
15.02.2019 06:00:00 4,3 4,2 29 16 40 22 SW 1025,2 4,2 0,0
15.02.2019 05:00:00 3,9 3,6 26 14 38 21 SW 1025,6 0,3 0,0
15.02.2019 04:00:00 4,2 3,8 14 8 31 17 SW 1025,7 6 0,0
15.02.2019 03:00:00 4,3 3,6 21 11 31 17 SW 1025,6 9 0,0
15.02.2019 02:00:00 4,5 3,8 28 15 43 23 WSW 1025,3 10 0,0
15.02.2019 01:00:00 4,3 4,0 17 9 28 15 SW 1025,6 7 0,0
15.02.2019 00:00:00 4,2 3,8 17 9 32 18 SW 1025,1 6 0,0
14.02.2019 23:00:00 4,4 3,8 23 12 42 23 WSW 1024,9 7 0,0
14.02.2019 22:00:00 4,7 4,1 28 15 45 24 WSW 1024,7 6 0,0
14.02.2019 21:00:00 4,4 3,7 7 4 30 16 S 1024,9 7 0,0
14.02.2019 20:00:00 4,6 3,7 12 7 34 18 SSW 1024,6 6 0,0
14.02.2019 19:00:00 4,6 3,9 25 13 35 19 SW 1024,4 6 0,0
14.02.2019 18:00:00 4,8 3,6 23 12 35 19 SSW 1024,6 7 0,0
14.02.2019 17:00:00 4,6 3,6 22 12 42 23 SW 1023,9 7 0,0
14.02.2019 16:00:00 4,8 3,8 24 13 35 19 SW 1024,0 7 0,0
14.02.2019 15:00:00 4,5 3,8 23 12 32 18 SSW 1024,6 6 0,0
14.02.2019 14:00:00 4,8 3,8 23 12 32 17 SSW 1024,4 6 0,0
14.02.2019 13:00:00 5,3 4,1 24 13 36 20 SW 1024,4 7 0,0
14.02.2019 12:00:00 5,9 4,7 19 10 34 18 SW 1024,3 8 0,0
14.02.2019 11:00:00 5,4 5,0 22 12 33 18 SW 1023,9 7 0,0
14.02.2019 10:00:00 4,0 4,0 20 11 42 23 SW 1025,0 0,3 0,0
14.02.2019 09:00:00 4,0 3,9 26 14 39 21 SW 1024,2 0,3 0,0
14.02.2019 08:00:00 - - - - 29 16 - - - -
14.02.2019 07:00:00 3,6 3,6 23 12 33 18 SSW 1023,4 0,2 0,0
14.02.2019 06:00:00 3,7 3,6 24 13 35 19 SW 1023,9 0,3 0,0
14.02.2019 05:00:00 3,3 3,2 16 8 24 13 S 1023,9 0,4 0,0
14.02.2019 04:00:00 3,4 3,1 17 9 24 13 S 1023,8 0,2 0,1
14.02.2019 03:00:00 3,2 3,1 19 10 31 17 SSW 1023,9 0,2 0,0
14.02.2019 02:00:00 3,5 3,2 19 11 29 16 SW 1023,9 1,1 0,0
14.02.2019 01:00:00 4,0 3,3 21 11 32 17 SW 1023,3 8 0,0
14.02.2019 00:00:00 4,0 3,3 24 13 35 19 WSW 1023,0 7 0,0
13.02.2019 23:00:00 4,2 2,7 22 12 32 17 SW 1022,3 7 0,0
13.02.2019 22:00:00 4,5 2,4 22 12 32 18 WSW 1022,1 7 0,0
13.02.2019 21:00:00 4,9 2,3 21 11 40 22 WSW 1022,6 7 0,0
13.02.2019 20:00:00 5,4 1,1 24 13 40 22 WSW 1021,4 9 0,0
13.02.2019 19:00:00 5,1 0,5 11 6 40 22 W 1021,3 9 0,0
13.02.2019 18:00:00 5,4 0,0 12 7 43 23 WSW 1021,2 10 0,0
13.02.2019 17:00:00 5,8 0,4 27 15 40 21 W 1020,4 10 0,0
13.02.2019 16:00:00 5,4 1,1 20 11 35 19 WSW 1020,8 9 0,0
13.02.2019 15:00:00 5,7 1,2 18 10 36 19 WSW 1020,5 10 0,0
13.02.2019 14:00:00 5,5 1,2 24 13 37 20 SW 1019,8 13 0,0
13.02.2019 13:00:00 6,1 0,8 22 12 36 19 WSW 1019,5 14 0,0
13.02.2019 12:00:00 7,1 0,7 23 13 39 21 WSW 1019,0 15 0,0
13.02.2019 11:00:00 6,1 1,6 27 15 39 21 WSW 1017,9 12 0,0
13.02.2019 10:00:00 6,1 1,0 22 12 48 26 WSW 1017,2 16 0,0
13.02.2019 09:00:00 6,0 0,5 31 17 44 24 W 1015,5 16 0,0
13.02.2019 08:00:00 5,3 0,9 29 16 43 23 W 1014,7 14 0,0
13.02.2019 07:00:00 5,5 0,9 27 14 48 26 WSW 1013,9 13 0,0
13.02.2019 06:00:00 5,4 0,9 35 19 58 31 W 1013,2 13 0,0
13.02.2019 05:00:00 4,9 1,4 38 20 46 25 W 1012,2 11 0,0
13.02.2019 04:00:00 5,0 2,0 32 17 52 28 W 1012,2 10 0,0
13.02.2019 03:00:00 5,2 3,9 32 17 53 28 WSW 1012,5 8 0,0
13.02.2019 02:00:00 5,3 4,1 36 19 53 29 WSW 1011,7 9 0,0
13.02.2019 01:00:00 4,1 3,8 29 16 53 29 SW 1011,8 4,3 0,0
13.02.2019 00:00:00 4,3 4,0 36 19 51 28 WSW 1012,5 6 0,0
12.02.2019 23:00:00 4,1 3,8 26 14 44 24 SW 1013,6 3,9 0,0
12.02.2019 22:00:00 4,2 3,8 26 14 44 24 SW 1014,8 4,3 0,0
12.02.2019 21:00:00 4,3 3,7 29 16 43 23 SW 1015,5 5 0,0
12.02.2019 20:00:00 3,7 3,0 32 17 47 25 SW 1016,0 7 0,0
12.02.2019 19:00:00 3,3 2,6 29 16 45 24 SW 1017,1 7 0,7
12.02.2019 18:00:00 3,0 1,8 30 16 47 26 SW 1018,8 9 0,9
12.02.2019 17:00:00 2,4 1,2 25 14 43 23 SW 1019,7 11 0,6
12.02.2019 16:00:00 2,1 1,2 23 13 49 26 WSW 1020,5 11 0,1
12.02.2019 15:00:00 2,7 -0,9 28 15 41 22 W 1020,8 32 0,0
12.02.2019 14:00:00 3,2 -1,6 29 16 42 23 W 1021,2 32 0,0
12.02.2019 13:00:00 3,4 -1,9 15 8 25 13 WSW 1021,7 38 0,0
12.02.2019 12:00:00 3,1 -2,6 15 8 22 12 WSW 1021,8 46 0,0
12.02.2019 11:00:00 2,1 -3,4 10 5 21 11 SW 1022,0 50 0,0
12.02.2019 10:00:00 1,5 -4,4 13 7 20 11 WSW 1022,0 50 0,0
12.02.2019 09:00:00 1,1 -4,3 8 4 18 10 W 1021,9 45 0,0
12.02.2019 08:00:00 0,8 -5,0 14 7 22 12 W 1021,4 50 0,0
12.02.2019 07:00:00 0,4 -6,5 11 6 19 11 NW 1021,2 50 0,0
12.02.2019 06:00:00 0,4 -7,1 16 8 29 16 NW 1020,6 50 0,0
12.02.2019 05:00:00 0,5 -6,6 20 11 31 17 NW 1020,1 50 0,0
12.02.2019 04:00:00 0,6 -6,5 21 12 34 18 NNW 1019,6 50 0,0
12.02.2019 03:00:00 0,7 -6,8 25 13 40 22 NW 1018,6 50 0,0
12.02.2019 02:00:00 0,9 -6,4 29 16 40 21 NNW 1017,9 50 0,0
12.02.2019 01:00:00 1,1 -5,0 28 15 42 23 NNW 1017,1 50 0,0

tt = Température de l'air
td = dewpoint
ff = Vitesse du vent
fx = gusts
dd = Direction du vent
ppp = reduced air pressure
vv = visibility
rr = Quantités de précipitations

stations d'obs. à proximité